www.pogodaiklimat.ru

Погода и климат >> Архив погоды >> Япония >> Осака


АРХИВ ПОГОДЫ в Осаке

Время (UTC), дата Ветер
(напр.,м/с)
 
Видим.   Явления Облачность Т
(С)
Тd
(С)
f
(%)
Тe
(С)
Тes
(С)
Комфортность P
(гПа)
Po
(гПа)
Тmin
(С)
Tmax
(С)
R
(мм)
R24
(мм)
S
(см)
16 11.09 С 2 н/о н/о +26.0 +23.1 84 +35 +35 очень
душно
1013.3 1003.8
17 11.09 С 3 н/о н/о +25.5 +22.0 81 +33 +33 очень
душно
1012.9 1003.4
18 11.09 С 3 30 км {ливн. осадки} 8/8
[Cu Sc]
+26.0 +21.2 75 +33 +33 очень
душно
1013.1 1003.7 0.0
19 11.09 С 3 н/о н/о +25.9 +20.7 73 +32 +32 очень
душно
1013.4 1003.9
20 11.09 С 4 н/о н/о +25.6 +21.1 76 +32 +32 очень
душно
1013.7 1004.2
21 11.09 С 3 40 км 3/3
[Cu Sc Ac trans]
+25.1 +20.8 77 +31 +31 очень
душно
1014.0 1004.5
23 11.09 С 5 н/о н/о +26.1 +19.5 67 +32 +32 очень
душно
1014.5 1005.0
00 12.09 С 4 40 км 8/3
[Cu hum Ac trans Ci fib]
+26.0 +18.4 63 +31 +33 очень
душно
1014.5 1005.0 +24.8 0.0
01 12.09 С 5 н/о н/о +27.4 +18.4 58 +32 +32 очень
душно
1014.6 1005.2
02 12.09 С 5 н/о н/о +28.2 +16.5 49 +32 +32 душно 1014.3 1004.9
03 12.09 С 5 50 км 5/1
[Cu hum Ac trans Ci sp]
+29.3 +17.8 50 +34 +40 очень
душно
1013.7 1004.4
04 12.09 С 6 н/о н/о +29.0 +16.2 46 +32 +32 душно 1013.4 1004.0
05 12.09 С 5 н/о н/о +29.3 +14.3 40 +31 +31 жарко 1012.7 1003.4
06 12.09 С 5 50 км 5/1
[Cu med, cong Ac trans Ci sp]
+28.7 +14.2 41 +31 +34 жарко 1012.5 1003.1
07 12.09 С 5 н/о н/о +28.2 +14.8 44 +31 +31 душно 1012.4 1003.0
08 12.09 С 5 н/о н/о +27.1 +14.8 47 +30 +30 душно 1012.3 1002.9
09 12.09 С 5 50 км 9/1
[Cu med, cong Ac trans Ci sp]
+26.5 +14.9 49 +29 +29 жарко 1013.0 1003.6
10 12.09 С 4 н/о н/о +25.3 +14.5 51 +28 +28 жарко 1013.8 1004.3
11 12.09 С 4 н/о н/о +25.1 +15.4 55 +28 +28 жарко 1013.9 1004.4
12 12.09 С 4 40 км 9/1
[Cu hum Ac As Ci sp]
+24.4 +15.4 57 +27 +27 жарко 1014.3 1004.8 +30.4
13 12.09 С 3 н/о н/о +24.3 +16.1 60 +28 +28 душно 1013.6 1004.1
15 12.09 С 4 н/о н/о +24.2 +16.2 61 +28 +28 душно 1013.2 1003.7
16 12.09 СВ 3 н/о н/о +22.0 +18.2 79 +27 +27 душно 1013.2 1003.6
18 12.09 С 2 6000 м ливневой дождь 10/9
[Cu med, cong Ac As]
+20.5 +19.3 93 +25 +25 комфорт 1012.7 1003.1 11
19 12.09 С 3 н/о н/о +20.7 +20.1 96 +26 +26 душно 1012.8 1003.2
20 12.09 С 3 н/о н/о +21.0 +20.0 94 +26 +26 душно 1012.5 1002.9
21 12.09 С 3 15 км слаб. ливневой дождь 10/6
[Cu med, cong Ac As]
+21.3 +20.1 93 +26 +26 душно 1013.2 1003.6
22 12.09 СВ 2 н/о н/о +21.5 +21.0 97 +27 +27 душно 1013.3 1003.7
23 12.09 С 3 н/о н/о +21.8 +21.1 96 +28 +28 душно 1013.3 1003.7
00 13.09 С 3 15 км слаб. ливневой дождь 10/6
[Cu Sc Ac As]
+22.4 +21.4 94 +29 +30 очень
душно
1014.2 1004.6 +20.3 19
01 13.09 СВ 3 н/о н/о +22.5 +21.8 96 +30 +30 очень
душно
1013.1 1003.5
02 13.09 СВ 2 н/о н/о +23.5 +21.6 89 +30 +30 очень
душно
1012.7 1003.2
03 13.09 СВ 2 35 км слаб. дождь 9/1
[Frnb Ac As]
+24.5 +20.8 80 +31 +36 очень
душно
1011.5 1002.0
04 13.09 СВ 3 н/о н/о +25.0 +20.9 78 +31 +31 очень
душно
1011.5 1002.0
05 13.09 СВ 5 н/о н/о +25.0 +20.3 75 +31 +31 очень
душно
1011.4 1001.9
06 13.09 СВ 3 40 км {ливн. осадки, дождь} 9/3
[Cu med, cong Ac As]
+24.7 +19.5 73 +30 +32 очень
душно
1011.5 1002.0 3
08 13.09 СВ 4 н/о н/о +25.3 +19.9 72 +31 +31 очень
душно
1012.0 1002.5
09 13.09 СВ 5 40 км слаб. ливневой дождь 9/3
[Cu med, cong Ac As Ci sp]
+24.8 +19.9 74 +30 +30 душно 1012.1 1002.6
10 13.09 СВ 3 н/о н/о +24.6 +19.7 74 +30 +30 очень
душно
1012.3 1002.8
11 13.09 СВ 5 н/о н/о +24.5 +19.6 74 +30 +30 очень
душно
1013.4 1003.9
12 13.09 СВ 4 30 км {ливн. осадки} 9/4
[Cu med, cong Ac As]
+24.2 +19.5 75 +29 +29 душно 1013.6 1004.1 +26.2 3
13 13.09 СВ 4 н/о н/о +24.3 +19.4 74 +29 +29 душно 1013.8 1004.3
14 13.09 СВ 4 н/о н/о +24.4 +18.8 71 +29 +29 душно 1013.5 1004.0
15 13.09 В 3 н/о н/о +24.2 +18.8 72 +29 +29 душно 1012.8 1003.3
16 13.09 В 2 н/о н/о +24.8 +18.3 67 +29 +29 душно 1012.5 1003.0
17 13.09 В 3 н/о н/о +24.9 +17.4 63 +29 +29 душно 1012.6 1003.1
18 13.09 В 4 30 км 9/9
[Cu Sc]
+24.7 +16.4 60 +28 +28 душно 1012.5 1003.0
19 13.09 В 3 н/о н/о +24.0 +16.3 62 +27 +27 жарко 1012.5 1003.0
21 13.09 С 4 45 км 1/1
[Cu Sc Ac trans]
+22.8 +16.8 69 +28 +28 душно 1012.9 1003.3
00 14.09 СВ 3 50 км 1/1
[Cu Sc Ac trans]
+26.8 +18.1 59 +31 +38 душно 1012.6 1003.2 +22.7
01 14.09 СВ 3 н/о н/о +27.8 +18.2 56 +33 +33 очень
душно
1012.3 1002.9
02 14.09 ЮВ 3 н/о н/о +29.5 +18.3 51 +34 +34 очень
душно
1011.7 1002.4
03 14.09 В 3 50 км 1/1
[Cu hum Ac trans Ci fib]
+30.6 +19.3 51 +36 +49 очень
душно
1011.0 1001.7
04 14.09 В 3 н/о н/о +30.6 +18.7 49 +36 +36 очень
душно
1010.2 1000.9
05 14.09 СВ 3 н/о н/о +31.2 +19.6 50 +37 +37 очень
душно
1009.3 1000.1
06 14.09 СВ 4 50 км 5/5
[Cu Sc]
+31.6 +19.6 49 +37 +40 очень
душно
1008.9 999.7
07 14.09 СВ 4 н/о н/о +30.2 +19.6 53 +36 +36 очень
душно
1009.1 999.8
08 14.09 СВ 3 н/о н/о +29.5 +19.5 55 +35 +35 очень
душно
1009.4 1000.1
09 14.09 СВ 3 50 км 9/8
[Cu Sc Ac trans]
+28.6 +19.0 56 +34 +34 очень
душно
1009.8 1000.5
10 14.09 В 3 н/о н/о +27.8 +19.3 60 +33 +33 очень
душно
1010.5 1001.1
11 14.09 В 3 н/о н/о +27.3 +18.6 59 +32 +32 очень
душно
1010.9 1001.5
12 14.09 ЮВ 2 40 км 1/0
[Ac trans]
+26.1 +18.5 63 +31 +31 очень
душно
1011.2 1001.8 +32.0
13 14.09 В 2 н/о н/о +26.2 +17.8 60 +31 +31 очень
душно
1011.1 1001.7
14 14.09 В 2 н/о н/о +25.8 +18.2 63 +30 +30 душно 1011.0 1001.6
15 14.09 СВ 3 н/о н/о +24.8 +19.0 70 +30 +30 душно 1010.8 1001.3
16 14.09 СВ 2 н/о н/о +24.6 +19.2 72 +30 +30 очень
душно
1010.6 1001.1
17 14.09 СВ 3 н/о н/о +24.5 +19.4 73 +30 +30 очень
душно
1010.3 1000.8
18 14.09 СВ 3 40 км ясно +24.3 +19.4 74 +29 +29 душно 1010.3 1000.8
19 14.09 СВ 2 н/о н/о +24.1 +19.4 75 +29 +29 душно 1010.1 1000.6
20 14.09 С 2 н/о н/о +24.0 +19.3 75 +29 +29 душно 1010.1 1000.6
21 14.09 С 3 50 км 1/1
[Sc Ac trans]
+23.7 +19.4 77 +29 +29 душно 1009.9 1000.4
22 14.09 С 3 н/о н/о +24.5 +19.6 74 +30 +30 очень
душно
1009.8 1000.3
23 14.09 С 3 н/о н/о +25.7 +19.4 68 +31 +31 очень
душно
1009.6 1000.2
00 15.09 СВ 3 50 км ясно +27.8 +19.9 62 +34 +40 очень
душно
1009.6 1000.2 +23.5
01 15.09 С 3 н/о н/о +28.6 +19.0 56 +34 +34 очень
душно
1009.0 999.7
02 15.09 С 3 н/о н/о +30.1 +18.9 51 +35 +35 очень
душно
1008.4 999.1
03 15.09 СВ 3 45 км 1/1
[Cu hum]
+32.3 +20.2 49 +39 +50 очень
душно
1007.3 998.1
04 15.09 СВ 3 н/о н/о +31.6 +18.2 45 +36 +36 очень
душно
1006.3 997.1
05 15.09 СВ 3 н/о н/о +32.4 +18.6 44 +37 +37 очень
душно
1005.6 996.4
06 15.09 С 3 45 км 3/3
[Cu Sc]
+33.4 +20.2 46 +40 +44 очень
душно
1005.1 996.0
07 15.09 СВ 3 н/о н/о +31.9 +19.2 47 +37 +37 очень
душно
1005.0 995.8
08 15.09 С 4 н/о н/о +31.2 +19.2 49 +37 +37 очень
душно
1004.8 995.6
09 15.09 С 4 50 км 1/1
[Sc]
+29.9 +18.4 50 +35 +35 очень
душно
1005.1 995.9
10 15.09 С 4 н/о н/о +28.8 +18.3 53 +34 +34 очень
душно
1005.9 996.6
11 15.09 С 4 н/о н/о +27.5 +18.5 58 +32 +32 очень
душно
1006.5 997.2
12 15.09 С 4 30 км 1/1
[Sc]
+26.8 +18.7 61 +32 +32 очень
душно
1006.6 997.2 +33.5
13 15.09 С 3 н/о н/о +26.2 +19.1 65 +31 +31 очень
душно
1006.2 996.8
14 15.09 С 3 н/о н/о +25.7 +19.4 68 +31 +31 очень
душно
1006.0 996.6
15 15.09 С 3 н/о н/о +25.7 +19.8 70 +31 +31 очень
душно
1005.9 996.5
16 15.09 С 3 н/о н/о +25.3 +20.3 74 +31 +31 очень
душно
1005.4 996.0
17 15.09 С 3 н/о н/о +25.2 +20.5 75 +31 +31 очень
душно
1005.2 995.8
18 15.09 С 3 30 км 9/1
[Cu hum Ac trans]
+25.5 +20.5 74 +32 +32 очень
душно
1004.9 995.5
19 15.09 С 3 н/о н/о +25.8 +20.2 71 +32 +32 очень
душно
1004.8 995.4
21 15.09 ЮЗ 1 25 км 6/1
[Cu hum Ac trans]
+25.6 +20.0 71 +31 +31 очень
душно
1004.6 995.2
22 15.09 С 2 н/о н/о +25.4 +20.7 75 +32 +32 очень
душно
1004.6 995.2
23 15.09 С 3 н/о н/о +27.3 +19.9 64 +33 +33 очень
душно
1004.4 995.1
00 16.09 С 3 30 км 8/8
[Cu Sc]
+28.1 +20.1 62 +34 +36 очень
душно
1004.2 994.9 +24.8
01 16.09 С 4 н/о н/о +29.8 +20.1 56 +36 +36 очень
душно
1003.7 994.5
03 16.09 С 4 35 км 9/9
[Cu Sc]
+29.7 +20.0 56 +36 +37 очень
душно
1003.1 993.9
04 16.09 С 5 н/о н/о +29.4 +19.1 54 +35 +35 очень
душно
1002.7 993.5
05 16.09 С 5 н/о н/о +29.6 +18.7 52 +35 +35 очень
душно
1002.7 993.5
06 16.09 С 6 40 км 5/4
[Cu med, cong Ac trans]
+30.4 +18.5 49 +35 +37 очень
душно
1002.8 993.6
07 16.09 С 7 н/о н/о +30.2 +19.0 51 +36 +36 очень
душно
1003.1 993.9
08 16.09 С 5 н/о н/о +28.7 +18.5 54 +34 +34 очень
душно
1003.6 994.3
09 16.09 С 4 45 км 8/8
[Cu Sc]
+27.5 +18.5 58 +32 +32 очень
душно
1004.3 995.0
10 16.09 С 5 н/о н/о +26.9 +18.8 61 +32 +32 очень
душно
1005.0 995.7
11 16.09 С 4 н/о н/о +26.4 +18.8 63 +31 +31 душно 1005.7 996.3
12 16.09 С 4 40 км 3/3
[Cu Sc]
+26.0 +18.9 65 +31 +31 очень
душно
1005.8 996.4 +30.8
13 16.09 С 3 н/о н/о +25.8 +19.2 67 +31 +31 очень
душно
1006.2 996.8
14 16.09 С 2 н/о н/о +25.8 +19.5 68 +31 +31 очень
душно
1006.2 996.8
15 16.09 СВ 2 н/о н/о +25.4 +19.5 70 +31 +31 очень
душно
1006.4 997.0
16 16.09 СВ 1 н/о н/о +24.7 +19.8 74 +30 +30 очень
душно
1006.6 997.2
17 16.09 СВ 1 н/о н/о +24.6 +20.3 77 +30 +30 очень
душно
1006.8 997.4
18 16.09 С 3 40 км 1/1
[Cu Sc]
+24.8 +20.1 75 +30 +30 душно 1007.0 997.6
19 16.09 С 3 н/о н/о +25.0 +20.1 74 +31 +31 очень
душно
1007.6 998.2
20 16.09 С 3 н/о н/о +24.5 +20.0 76 +30 +30 очень
душно
1008.1 998.6
21 16.09 С 2 40 км 4/4
[Cu Sc]
+24.6 +20.3 77 +30 +30 очень
душно
1008.5 999.0
22 16.09 СВ 2 н/о н/о +25.2 +20.5 75 +31 +31 очень
душно
1008.6 999.2
23 16.09 С 3 н/о н/о +26.5 +20.1 68 +33 +33 очень
душно
1009.3 999.9
00 17.09 С 3 40 км 4/4
[Cu med, cong]
+27.8 +19.6 61 +34 +37 очень
душно
1009.8 1000.4 +24.1
01 17.09 СВ 3 н/о н/о +29.1 +18.9 54 +34 +34 очень
душно
1009.7 1000.4
02 17.09 С 3 н/о н/о +29.6 +19.6 55 +36 +36 очень
душно
1009.2 999.9
03 17.09 С 4 50 км 8/8
[Cu med, cong]
+30.7 +18.4 48 +36 +38 очень
душно
1008.7 999.4
04 17.09 С 4 н/о н/о +30.3 +18.4 49 +35 +35 очень
душно
1008.3 999.0
05 17.09 С 5 н/о н/о +30.5 +19.5 52 +36 +36 очень
душно
1008.3 999.0
06 17.09 С 4 50 км 9/4
[Cu Sc Ac trans]
+30.0 +19.1 52 +35 +37 очень
душно
1008.3 999.0
07 17.09 С 6 н/о н/о +29.3 +19.3 55 +35 +35 очень
душно
1008.5 999.2
08 17.09 С 6 н/о н/о +27.8 +19.1 59 +33 +33 очень
душно
1009.4 1000.0
09 17.09 С 5 40 км 9/3
[Cu Sc Ac trans]
+26.8 +18.7 61 +32 +32 очень
душно
1010.0 1000.6
10 17.09 С 5 н/о н/о +26.3 +18.7 63 +31 +31 душно 1010.0 1000.6
11 17.09 С 5 н/о н/о +25.6 +18.8 66 +31 +31 очень
душно
1010.6 1001.2
12 17.09 С 4 40 км 9/3
[Cu Sc Ac As]
+25.7 +18.9 66 +31 +31 очень
душно
1011.1 1001.7 +31.8
13 17.09 С 3 н/о н/о +25.3 +19.0 68 +30 +30 душно 1011.3 1001.8
14 17.09 С 2 н/о н/о +25.4 +19.1 68 +30 +30 душно 1011.2 1001.7
15 17.09 СВ 3 н/о н/о +25.1 +19.0 69 +30 +30 душно 1011.2 1001.7
16 17.09 С 3 н/о н/о +24.8 +19.0 70 +30 +30 душно 1011.1 1001.6
17 17.09 С 3 н/о н/о +24.7 +18.9 70 +30 +30 очень
душно
1010.3 1000.8
18 17.09 С 2 40 км 9/3
[Cu Sc Ac trans]
+24.5 +18.7 70 +29 +29 душно 1010.5 1001.0
20 17.09 С 3 н/о н/о +24.2 +18.2 69 +29 +29 душно 1010.4 1000.9
21 17.09 С 3 35 км 9/9
[Cu Sc]
+24.8 +18.5 68 +29 +29 душно 1010.8 1001.3
23 17.09 С 3 н/о н/о +24.8 +19.0 70 +30 +30 душно 1011.3 1001.8
00 18.09 СВ 3 30 км 9/9
[Cu Sc]
+25.3 +19.2 69 +30 +31 душно 1011.7 1002.2 +24.1
01 18.09 В 2 н/о н/о +25.7 +19.4 68 +31 +31 очень
душно
1011.7 1002.3
02 18.09 СВ 3 н/о н/о +26.6 +19.5 65 +32 +32 очень
душно
1010.8 1001.4
03 18.09 С 3 30 км 8/6
[Cu med, cong Ac trans Ci sp]
+28.5 +19.7 59 +34 +39 очень
душно
1009.8 1000.5
04 18.09 С 4 н/о н/о +27.6 +18.9 59 +33 +33 очень
душно
1009.4 1000.0
05 18.09 С 2 н/о н/о +29.9 +18.4 50 +35 +35 очень
душно
1008.8 999.5
06 18.09 С 5 40 км 8/8
[Cu Sc Ac trans]
+28.4 +17.9 53 +33 +34 очень
душно
1009.0 999.7
07 18.09 С 5 н/о н/о +28.3 +16.6 49 +32 +32 душно 1009.2 999.9
09 18.09 С 5 50 км 4/3
[Cu Sc Ac trans Ci sp]
+25.3 +15.6 55 +28 +28 жарко 1011.2 1001.7
10 18.09 С 5 н/о н/о +24.4 +13.9 52 +27 +27 жарко 1011.9 1002.4
11 18.09 С 4 н/о н/о +23.6 +14.3 56 +26 +26 жарко 1012.6 1003.1
12 18.09 С 3 40 км 3/1
[Sc Ci fib]
+23.0 +14.8 60 +27 +27 душно 1012.9 1003.3 +30.7
13 18.09 СВ 3 н/о н/о +22.6 +15.0 62 +26 +26 жарко 1013.2 1003.6
14 18.09 С 3 н/о н/о +22.8 +14.9 61 +27 +27 душно 1012.7 1003.1
15 18.09 С 3 н/о н/о +22.9 +14.7 60 +27 +27 душно 1012.9 1003.3
16 18.09 С 3 н/о н/о +22.9 +14.7 60 +27 +27 душно 1012.9 1003.3
17 18.09 С 2 н/о н/о +22.5 +14.9 62 +26 +26 жарко 1012.8 1003.2

 

Местоположение метеостанции Осака (Япония): широта 34.68 долгота 135.51 высота над уровнем моря 83 м.

В архиве по умолчанию представлена погода в Осаке за последнюю неделю. Архивные данные за месяц целиком и за предыдущие месяцы, начиная с января 2011 года, Вы можете получить, выбрав интересующий диапазон дат из раскрывающегося списка и нажав кнопку "Ввод!".


*Определитесь, кто Вы:
робот инопланетянин человек

Внимание! Время в таблицах - всемирное. Для получения местного времени необходимо прибавить поправку, которая равна 9 ч.

Смотрите также архив погоды в соседних городах и на ближайших метеорологических станциях:

Погода в Кобе (Япония) (28 км)
Погода в Наре (Япония) (29 км)
Погода в Киото (Япония) (43 км)
Погода в Уэно (Япония) (59 км)
Погода в Вакаяме (Япония) (59 км)
Погода в Сумото (Япония) (68 км)
Погода в Химедзи (Япония) (79 км)
Погода в Майдзуру (Япония) (88 км)
Погода в Цу (Япония) (92 км)
Погода в Овасе (Япония) (93 км)

Пояснения к столбцам:

Ветер - указаны скорость ветра в м/с - средняя за 10 мин, порывы в срок и между сроками (в фигурных скобках) и направление, откуда дует ветер: С - северный, СВ - северо-восточный, В - восточный, ЮВ - юго-восточный, Ю - южный, ЮЗ - юго-западный, З - западный, СЗ - северо-западный.
Видимость - горизонтальная дальность видимости в метрах или километрах. При видимости от 1 до 10 км при отсутствии осадков обычно наблюдается дымка, при ухудшении видимости до 1 км и менее - туман. В сухую погоду видимость может ухудшаться дымом, пылью или мглою.
Явления - указаны атмосферные явления, наблюдавшиеся в срок или в последний час перед сроком; фигурными скобками обозначены явления, наблюдавшиеся между сроками (за 1-3 часа до срока); квадратными скобками обозначены град или гололедные отложения с указанием их диаметра в мм.
Облачность - указаны через наклонную черту общая и нижняя облачность в баллах и высота нижней границы облаков в метрах; квадратными скобками обозначены формы облаков: Ci - перистые, Cs - перисто-слоистые, Cc - перисто-кучевые, Ac - высококучевые, As - высокослоистые, Sc - слоисто-кучевые, Ns - слоисто-дождевые, Cu - кучевые, Cb - кучево-дождевые. Подробнее классификацию облаков см. в Атласе облаков (PDF).
T - Температура воздуха - температура, измеренная на высоте 2 м над землей.
Td - Температура точки росы - температура, при понижении до которой содержащийся в воздухе водяной пар достигнет насыщения.
f - Относительная влажность воздуха - влажноcть воздуха, измеренная на высоте 2 м над землей.
Te - Эффективная температура - температура, которую ощущает одетый по сезону человек в тени. Характеристика душности погоды. При расчете учитывается влияние влажности воздуха и скорости ветра на теплоощущения человека.
Tes - Эффективная температура на солнце - температура, которую ощущает человек, с поправкой на солнечный нагрев. Характеристика знойности погоды. Зависит от высоты солнца над горизонтом, облачности и скорости ветра. Ночью, в пасмурную погоду, а также при ветре 12 м/с и более поправка равна нулю.
P - Атмосферное давление - приведенное к уровню моря атмосферное давление.
Po - Атмосферное давление - измеренное на уровне метеостанции атмосферное давление.
Tmin - Минимальная температура - минимум температуры воздуха на высоте 2 м над землей.
Tmax - Максимальная температура - максимум температуры воздуха на высоте 2 м над землей.
R - Количество осадков - Количество выпавших осадков за период времени, мм. При наведении курсора мыши на число - период времени, за который выпало указанное количество осадков.
R24 - Количество осадков - Количество выпавших осадков за 24 часа, мм.
S - Снежный покров - Высота снежного покрова, см. При наведении курсора мыши на число - состояние снежного покрова и степень покрытия местности в баллах.